Time,TemperatureF,DewpointF,PressureIn,WindDirection,WindDirectionDegrees,WindSpeedMPH,WindSpeedGustMPH,Humidity,HourlyPrecipIn,Conditions,Clouds,dailyrainin,SoftwareType,DateUTC
2013-05-28 00:03:00,58.0,57.0,29.92,East,90,1.0,6.0,97,0.01,,,1.07,,2013-05-28 04:03:00,
2013-05-28 00:13:00,58.0,57.0,29.92,East,90,1.0,6.0,97,0.01,,,1.07,,2013-05-28 04:13:00,
2013-05-28 00:22:00,58.0,57.0,29.92,East,90,0.0,0.0,97,0.01,,,1.07,,2013-05-28 04:22:00,
2013-05-28 00:33:00,58.0,57.0,29.92,ENE,57,1.0,3.0,97,0.00,,,1.07,,2013-05-28 04:33:00,
2013-05-28 00:43:00,58.0,57.0,29.92,ENE,57,1.0,3.0,97,0.00,,,1.07,,2013-05-28 04:43:00,
2013-05-28 00:53:00,58.0,57.0,29.91,NE,55,0.0,1.0,97,0.00,,,1.07,,2013-05-28 04:53:00,
2013-05-28 01:02:00,58.0,57.0,29.91,NE,55,0.0,2.0,97,0.00,,,1.07,,2013-05-28 05:02:00,
2013-05-28 01:12:00,58.0,57.0,29.91,NE,55,0.0,2.0,97,0.00,,,1.07,,2013-05-28 05:12:00,
2013-05-28 01:22:00,58.0,57.0,29.91,NE,55,0.0,1.0,97,0.00,,,1.07,,2013-05-28 05:22:00,
2013-05-28 01:33:00,57.0,56.0,29.90,NE,55,0.0,0.0,97,0.00,,,1.07,,2013-05-28 05:33:00,
2013-05-28 01:42:00,57.0,56.0,29.90,NE,55,0.0,0.0,97,0.00,,,1.07,,2013-05-28 05:42:00,
2013-05-28 01:52:00,57.0,56.0,29.91,NE,55,0.0,0.0,97,0.00,,,1.07,,2013-05-28 05:52:00,
2013-05-28 02:02:00,57.0,56.0,29.91,NE,55,0.0,0.0,97,0.00,,,1.07,,2013-05-28 06:02:00,
2013-05-28 02:12:00,57.0,56.0,29.91,NE,55,0.0,0.0,97,0.00,,,1.07,,2013-05-28 06:12:00,
2013-05-28 02:22:00,58.0,57.0,29.91,NE,55,0.0,0.0,97,0.00,,,1.07,,2013-05-28 06:22:00,
2013-05-28 02:32:00,59.0,58.0,29.91,NE,55,0.0,1.0,97,0.00,,,1.07,,2013-05-28 06:32:00,
2013-05-28 02:42:00,59.0,58.0,29.91,NE,55,0.0,1.0,97,0.00,,,1.07,,2013-05-28 06:42:00,
2013-05-28 02:52:00,60.0,59.0,29.91,NE,55,0.0,0.0,97,0.00,,,1.07,,2013-05-28 06:52:00,
2013-05-28 03:02:00,60.0,59.0,29.91,NE,55,0.0,0.0,97,0.00,,,1.07,,2013-05-28 07:02:00,
2013-05-28 03:11:00,60.0,59.0,29.91,NE,55,0.0,0.0,97,0.00,,,1.07,,2013-05-28 07:11:00,
2013-05-28 03:21:00,60.0,59.0,29.91,ESE,117,0.0,3.0,97,0.00,,,1.07,,2013-05-28 07:21:00,
2013-05-28 03:32:00,59.0,58.0,29.91,ESE,121,0.0,0.0,97,0.00,,,1.07,,2013-05-28 07:32:00,
2013-05-28 03:42:00,59.0,58.0,29.91,ESE,121,0.0,0.0,97,0.00,,,1.07,,2013-05-28 07:42:00,
2013-05-28 03:52:00,59.0,58.0,29.90,ESE,121,0.0,0.0,97,0.00,,,1.07,,2013-05-28 07:52:00,
2013-05-28 04:02:00,60.0,59.0,29.90,SSW,207,2.0,4.0,97,0.00,,,1.07,,2013-05-28 08:02:00,
2013-05-28 04:12:00,60.0,59.0,29.90,SSW,207,2.0,4.0,97,0.00,,,1.07,,2013-05-28 08:12:00,
2013-05-28 04:22:00,60.0,59.0,29.90,SSW,211,2.0,5.0,97,0.00,,,1.07,,2013-05-28 08:22:00,
2013-05-28 04:32:00,61.0,60.0,29.91,SSW,204,0.0,6.0,97,0.00,,,1.07,,2013-05-28 08:32:00,
2013-05-28 04:42:00,61.0,60.0,29.91,SSW,204,0.0,6.0,97,0.00,,,1.07,,2013-05-28 08:42:00,
2013-05-28 04:52:00,61.0,60.0,29.91,WSW,257,2.0,5.0,97,0.00,,,1.07,,2013-05-28 08:52:00,
2013-05-28 05:01:00,62.0,61.0,29.91,WSW,248,5.0,9.0,97,0.05,,,1.12,,2013-05-28 09:01:00,
2013-05-28 05:11:00,62.0,61.0,29.91,WSW,248,5.0,9.0,97,0.05,,,1.12,,2013-05-28 09:11:00,
2013-05-28 05:21:00,63.0,62.0,29.91,WSW,242,5.0,10.0,97,0.12,,,1.19,,2013-05-28 09:21:00,
2013-05-28 05:33:00,63.0,62.0,29.92,WSW,246,3.0,11.0,96,0.15,,,1.22,,2013-05-28 09:33:00,
2013-05-28 05:43:00,63.0,62.0,29.92,WSW,246,3.0,11.0,96,0.15,,,1.22,,2013-05-28 09:43:00,
2013-05-28 05:54:00,63.0,62.0,29.92,WSW,240,2.0,5.0,96,0.16,,,1.23,,2013-05-28 09:54:00,
2013-05-28 06:03:00,63.0,62.0,29.91,SSW,194,1.0,5.0,96,0.10,,,1.23,,2013-05-28 10:03:00,
2013-05-28 06:12:00,63.0,62.0,29.91,SSW,194,1.0,5.0,96,0.10,,,1.23,,2013-05-28 10:12:00,
2013-05-28 06:23:00,63.0,62.0,29.91,SSW,196,0.0,3.0,96,0.04,,,1.22,,2013-05-28 10:23:00,
2013-05-28 06:32:00,62.0,61.0,29.93,NW,311,3.0,5.0,95,0.01,,,1.22,,2013-05-28 10:32:00,
2013-05-28 06:43:00,62.0,61.0,29.93,NW,311,3.0,5.0,95,0.01,,,1.22,,2013-05-28 10:43:00,
2013-05-28 06:53:00,63.0,62.0,29.93,NNW,327,2.0,8.0,96,0.00,,,1.22,,2013-05-28 10:53:00,
2013-05-28 07:02:00,63.0,62.0,29.92,NNW,327,0.0,0.0,96,0.00,,,1.22,,2013-05-28 11:02:00,
2013-05-28 07:11:00,63.0,62.0,29.92,NNW,327,0.0,0.0,96,0.00,,,1.22,,2013-05-28 11:11:00,
2013-05-28 07:22:00,63.0,62.0,29.92,NNW,327,0.0,0.0,96,0.00,,,1.15,,2013-05-28 11:22:00,
2013-05-28 07:32:00,63.0,62.0,29.92,NNW,333,0.0,0.0,97,0.00,,,1.15,,2013-05-28 11:32:00,
2013-05-28 07:42:00,63.0,62.0,29.92,NNW,333,0.0,0.0,97,0.00,,,1.15,,2013-05-28 11:42:00,
2013-05-28 07:52:00,63.0,62.0,29.92,East,90,0.0,2.0,97,0.00,,,1.15,,2013-05-28 11:52:00,
2013-05-28 08:02:00,63.0,62.0,29.91,SE,136,3.0,5.0,97,0.00,,,1.15,,2013-05-28 12:02:00,
2013-05-28 08:11:00,63.0,62.0,29.91,SE,136,3.0,5.0,97,0.00,,,1.15,,2013-05-28 12:11:00,
2013-05-28 08:22:00,64.0,63.0,29.91,SE,131,1.0,5.0,97,0.00,,,1.09,,2013-05-28 12:22:00,
2013-05-28 08:32:00,64.0,63.0,29.92,SE,131,0.0,4.0,97,0.00,,,1.09,,2013-05-28 12:32:00,
2013-05-28 08:42:00,64.0,63.0,29.92,SE,131,0.0,4.0,97,0.00,,,1.09,,2013-05-28 12:42:00,
2013-05-28 08:52:00,64.0,63.0,29.92,SE,144,1.0,3.0,96,0.00,,,1.09,,2013-05-28 12:52:00,
2013-05-28 09:01:00,64.0,63.0,29.92,SSE,166,1.0,4.0,96,0.00,,,1.09,,2013-05-28 13:01:00,
2013-05-28 09:11:00,64.0,63.0,29.92,SSE,166,1.0,4.0,96,0.00,,,1.09,,2013-05-28 13:11:00,
2013-05-28 09:22:00,65.0,64.0,29.92,South,183,1.0,4.0,95,0.00,,,1.07,,2013-05-28 13:22:00,
2013-05-28 09:32:00,65.0,63.0,29.92,South,183,0.0,4.0,94,0.00,,,1.07,,2013-05-28 13:32:00,
2013-05-28 09:42:00,65.0,63.0,29.92,South,183,0.0,4.0,94,0.00,,,1.07,,2013-05-28 13:42:00,
2013-05-28 09:52:00,66.0,64.0,29.91,SSW,213,1.0,6.0,93,0.00,,,1.07,,2013-05-28 13:52:00,
2013-05-28 10:02:00,67.0,64.0,29.90,SW,214,3.0,7.0,91,0.00,,,1.07,,2013-05-28 14:02:00,
2013-05-28 10:12:00,67.0,64.0,29.90,SW,214,3.0,7.0,91,0.00,,,1.07,,2013-05-28 14:12:00,
2013-05-28 10:21:00,68.0,65.0,29.90,SSW,202,4.0,8.0,89,0.00,,,1.01,,2013-05-28 14:21:00,
2013-05-28 10:32:00,70.0,66.0,29.89,SW,221,6.0,11.0,87,0.00,,,1.01,,2013-05-28 14:32:00,
2013-05-28 10:42:00,70.0,66.0,29.89,SW,221,6.0,11.0,87,0.00,,,1.01,,2013-05-28 14:42:00,
2013-05-28 10:52:00,71.0,66.0,29.89,SSW,205,8.0,16.0,84,0.01,,,1.02,,2013-05-28 14:52:00,
2013-05-28 11:01:00,71.0,66.0,29.89,SSW,205,8.0,16.0,84,0.01,,,1.02,,2013-05-28 15:01:00,
2013-05-28 11:11:00,71.0,66.0,29.89,SSW,205,8.0,16.0,84,0.01,,,1.02,,2013-05-28 15:11:00,
2013-05-28 11:21:00,73.0,68.0,29.89,SSW,201,6.0,13.0,84,0.01,,,1.02,,2013-05-28 15:21:00,
2013-05-28 11:33:00,73.0,68.0,29.88,SW,227,6.0,13.0,83,0.01,,,1.02,,2013-05-28 15:33:00,
2013-05-28 11:43:00,73.0,68.0,29.88,SW,227,6.0,13.0,83,0.01,,,1.02,,2013-05-28 15:43:00,
2013-05-28 11:53:00,73.0,67.0,29.88,SW,219,8.0,16.0,82,0.00,,,1.02,,2013-05-28 15:53:00,
2013-05-28 12:03:00,74.0,68.0,29.88,WSW,238,6.0,14.0,82,0.00,,,1.02,,2013-05-28 16:03:00,
2013-05-28 12:13:00,74.0,68.0,29.88,WSW,238,6.0,14.0,82,0.00,,,1.02,,2013-05-28 16:13:00,
2013-05-28 12:23:00,75.0,68.0,29.87,WSW,248,8.0,19.0,79,0.00,,,1.02,,2013-05-28 16:23:00,
2013-05-28 12:33:00,76.0,68.0,29.88,SW,216,9.0,18.0,77,0.00,,,1.02,,2013-05-28 16:33:00,
2013-05-28 12:42:00,76.0,68.0,29.88,SW,216,9.0,18.0,77,0.00,,,1.02,,2013-05-28 16:42:00,
2013-05-28 12:53:00,76.0,69.0,29.88,SSW,208,8.0,19.0,79,0.00,,,1.02,,2013-05-28 16:53:00,
2013-05-28 13:02:00,76.0,69.0,29.88,SW,227,7.0,17.0,78,0.00,,,1.02,,2013-05-28 17:02:00,
2013-05-28 13:12:00,76.0,69.0,29.88,SW,227,7.0,17.0,78,0.00,,,1.02,,2013-05-28 17:12:00,
2013-05-28 13:22:00,76.0,69.0,29.88,SW,227,7.0,17.0,78,0.00,,,1.02,,2013-05-28 17:22:00,
2013-05-28 13:32:00,76.0,69.0,29.86,SSW,199,6.0,15.0,80,0.00,,,1.02,,2013-05-28 17:32:00,
2013-05-28 13:42:00,77.0,69.0,29.84,SSW,211,7.0,17.0,77,0.00,,,1.02,,2013-05-28 17:42:00,
2013-05-28 13:52:00,77.0,69.0,29.84,SSW,211,7.0,17.0,77,0.00,,,1.02,,2013-05-28 17:52:00,
2013-05-28 14:01:00,76.0,68.0,29.84,WSW,252,8.0,17.0,77,0.00,,,1.02,,2013-05-28 18:01:00,
2013-05-28 14:11:00,76.0,68.0,29.84,WSW,252,8.0,17.0,77,0.00,,,1.02,,2013-05-28 18:11:00,
2013-05-28 14:22:00,76.0,69.0,29.84,SW,219,8.0,16.0,78,0.00,,,1.02,,2013-05-28 18:22:00,
2013-05-28 14:32:00,77.0,69.0,29.84,SW,215,8.0,15.0,76,0.00,,,1.02,,2013-05-28 18:32:00,
2013-05-28 14:42:00,77.0,69.0,29.84,WSW,257,4.0,12.0,77,0.00,,,1.02,,2013-05-28 18:42:00,
2013-05-28 14:52:00,77.0,69.0,29.84,WSW,257,4.0,12.0,77,0.00,,,1.02,,2013-05-28 18:52:00,
2013-05-28 15:01:00,78.0,70.0,29.84,SW,230,5.0,14.0,76,0.00,,,1.02,,2013-05-28 19:01:00,
2013-05-28 15:11:00,78.0,70.0,29.84,SW,230,5.0,14.0,76,0.00,,,1.02,,2013-05-28 19:11:00,
2013-05-28 15:21:00,78.0,69.0,29.84,SW,226,6.0,18.0,73,0.00,,,1.00,,2013-05-28 19:21:00,
2013-05-28 15:32:00,78.0,69.0,29.84,SW,223,7.0,15.0,73,0.00,,,1.00,,2013-05-28 19:32:00,
2013-05-28 15:42:00,78.0,69.0,29.84,SW,223,7.0,15.0,73,0.00,,,1.00,,2013-05-28 19:42:00,
2013-05-28 15:52:00,77.0,67.0,29.85,WSW,257,8.0,15.0,72,0.00,,,1.00,,2013-05-28 19:52:00,
2013-05-28 16:02:00,77.0,68.0,29.85,WSW,244,5.0,12.0,73,0.00,,,1.00,,2013-05-28 20:02:00,
2013-05-28 16:11:00,77.0,68.0,29.85,WSW,244,5.0,12.0,73,0.00,,,1.00,,2013-05-28 20:11:00,
2013-05-28 16:22:00,78.0,69.0,29.85,SW,232,6.0,15.0,73,0.00,,,0.97,,2013-05-28 20:22:00,
2013-05-28 16:32:00,78.0,69.0,29.85,WSW,255,7.0,13.0,73,0.00,,,0.97,,2013-05-28 20:32:00,
2013-05-28 16:42:00,78.0,69.0,29.85,WSW,255,7.0,13.0,73,0.00,,,0.97,,2013-05-28 20:42:00,
2013-05-28 16:52:00,79.0,69.0,29.85,SW,219,9.0,16.0,72,0.00,,,0.97,,2013-05-28 20:52:00,
2013-05-28 17:02:00,79.0,69.0,29.85,SW,234,5.0,16.0,72,0.00,,,0.97,,2013-05-28 21:02:00,
2013-05-28 17:11:00,79.0,69.0,29.85,SW,234,5.0,16.0,72,0.00,,,0.97,,2013-05-28 21:11:00,
2013-05-28 17:21:00,79.0,69.0,29.84,South,185,6.0,15.0,71,0.00,,,0.84,,2013-05-28 21:21:00,
2013-05-28 17:33:00,79.0,69.0,29.84,SW,220,5.0,12.0,71,0.00,,,0.84,,2013-05-28 21:33:00,
2013-05-28 17:43:00,79.0,69.0,29.84,SW,220,5.0,12.0,71,0.00,,,0.84,,2013-05-28 21:43:00,
2013-05-28 17:53:00,79.0,69.0,29.83,West,273,5.0,14.0,72,0.00,,,0.84,,2013-05-28 21:53:00,
2013-05-28 18:02:00,80.0,69.0,29.83,SSW,212,5.0,14.0,70,0.00,,,0.84,,2013-05-28 22:02:00,
2013-05-28 18:13:00,80.0,69.0,29.83,SSW,212,5.0,14.0,70,0.00,,,0.84,,2013-05-28 22:13:00,
2013-05-28 18:22:00,79.0,68.0,29.83,WSW,238,8.0,13.0,69,0.00,,,0.68,,2013-05-28 22:22:00,
2013-05-28 18:33:00,78.0,68.0,29.84,SSW,202,4.0,11.0,72,0.00,,,0.68,,2013-05-28 22:33:00,
2013-05-28 18:42:00,78.0,69.0,29.83,SW,219,4.0,10.0,73,0.00,,,0.68,,2013-05-28 22:42:00,
2013-05-28 18:52:00,78.0,69.0,29.83,SW,219,4.0,10.0,73,0.00,,,0.68,,2013-05-28 22:52:00,
2013-05-28 19:02:00,78.0,69.0,29.84,SW,236,5.0,13.0,73,0.00,,,0.68,,2013-05-28 23:02:00,
2013-05-28 19:11:00,78.0,69.0,29.84,SW,236,5.0,13.0,73,0.00,,,0.68,,2013-05-28 23:11:00,
2013-05-28 19:22:00,78.0,69.0,29.84,SW,221,3.0,10.0,74,0.00,,,0.60,,2013-05-28 23:22:00,
2013-05-28 19:32:00,78.0,69.0,29.84,SW,233,5.0,11.0,73,0.00,,,0.60,,2013-05-28 23:32:00,
2013-05-28 19:42:00,78.0,69.0,29.84,SW,233,5.0,11.0,73,0.00,,,0.60,,2013-05-28 23:42:00,
2013-05-28 19:52:00,78.0,69.0,29.83,SSW,207,6.0,11.0,75,0.00,,,0.60,,2013-05-28 23:52:00,
2013-05-28 20:02:00,77.0,69.0,29.83,South,190,5.0,9.0,76,0.00,,,0.60,,2013-05-29 00:02:00,
2013-05-28 20:11:00,77.0,69.0,29.83,South,190,5.0,9.0,76,0.00,,,0.60,,2013-05-29 00:11:00,
2013-05-28 20:22:00,77.0,69.0,29.84,SSW,196,6.0,11.0,76,0.00,,,0.59,,2013-05-29 00:22:00,
2013-05-28 20:32:00,77.0,69.0,29.83,SSW,209,4.0,8.0,77,0.00,,,0.59,,2013-05-29 00:32:00,
2013-05-28 20:42:00,77.0,69.0,29.83,SSW,209,4.0,8.0,77,0.00,,,0.59,,2013-05-29 00:42:00,
2013-05-28 20:52:00,76.0,69.0,29.84,SW,214,2.0,7.0,80,0.00,,,0.59,,2013-05-29 00:52:00,
2013-05-28 21:01:00,75.0,68.0,29.83,SW,217,2.0,7.0,80,0.00,,,0.59,,2013-05-29 01:01:00,
2013-05-28 21:11:00,75.0,68.0,29.83,SW,217,2.0,7.0,80,0.00,,,0.59,,2013-05-29 01:11:00,
2013-05-28 21:22:00,75.0,68.0,29.83,SSW,205,1.0,7.0,80,0.00,,,0.44,,2013-05-29 01:22:00,
2013-05-28 21:32:00,74.0,67.0,29.82,SSW,207,2.0,8.0,80,0.00,,,0.44,,2013-05-29 01:32:00,
2013-05-28 21:42:00,74.0,67.0,29.82,SSW,207,2.0,8.0,80,0.00,,,0.44,,2013-05-29 01:42:00,
2013-05-28 21:52:00,74.0,67.0,29.81,SSW,210,2.0,6.0,80,0.00,,,0.44,,2013-05-29 01:52:00,
2013-05-28 22:02:00,74.0,67.0,29.81,SW,214,2.0,8.0,80,0.00,,,0.44,,2013-05-29 02:02:00,
2013-05-28 22:12:00,74.0,67.0,29.81,SW,214,2.0,8.0,80,0.00,,,0.44,,2013-05-29 02:12:00,
2013-05-28 22:21:00,73.0,66.0,29.83,SSW,196,4.0,8.0,80,0.00,,,0.19,,2013-05-29 02:21:00,
2013-05-28 22:32:00,73.0,66.0,29.83,SSW,213,4.0,8.0,80,0.00,,,0.19,,2013-05-29 02:32:00,
2013-05-28 22:42:00,73.0,66.0,29.84,SW,215,4.0,8.0,80,0.00,,,0.19,,2013-05-29 02:42:00,
2013-05-28 22:52:00,73.0,66.0,29.84,SW,215,4.0,8.0,80,0.00,,,0.19,,2013-05-29 02:52:00,
2013-05-28 23:02:00,73.0,67.0,29.84,SSW,201,4.0,9.0,81,0.00,,,0.19,,2013-05-29 03:02:00,
2013-05-28 23:12:00,73.0,67.0,29.84,SSW,201,4.0,9.0,81,0.00,,,0.19,,2013-05-29 03:12:00,
2013-05-28 23:22:00,73.0,66.0,29.84,SSW,211,6.0,9.0,80,0.00,,,0.18,,2013-05-29 03:22:00,
2013-05-28 23:33:00,73.0,67.0,29.85,SSW,197,3.0,8.0,81,0.00,,,0.18,,2013-05-29 03:33:00,
2013-05-28 23:43:00,73.0,67.0,29.85,SSW,197,3.0,8.0,81,0.00,,,0.18,,2013-05-29 03:43:00,
2013-05-28 23:53:00,73.0,67.0,29.85,SSW,212,5.0,9.0,81,0.00,,,0.18,,2013-05-29 03:53:00,